Main page
METAR-TAF:

METAR-TAF

Airports :

Oil platform

K13-a, Netherlands

latitude: 53-13-04N, longitude: 3-13-13E, elevation: 31 m

Current weather observation

The report was made 41 minutes ago, at 18:25 UTC
Wind 16 kt from the South/Southwest
Temperature 14°C
Humidity 72%
Pressure 1011 hPa

METAR: EHJR 251825Z AUTO 20016KT //// // ///////// 14/09 Q1011 RE// W///H9

Time: 21:06 (19:06 UTC)


TAF: missing

Weather observations and forecasts of more than 4000 airports (METAR and TAF reports).

The available stations are represented by yellow and red dots on the map.

Hover mouse over dot to see the name of the station.

Then click to see weather observations and forecasts.

To change the map : click on the green buttons with a black cross to zoom in, on the green button with a dash to zoom out, or on the green arrows for adjacent maps.


METAR-TAF: